AirNav   Pilot Hours Calculator
 
 718 users online  

Y47 Oakland Southwest Airport
New Hudson, Michigan, USA

GOING TO NEW HUDSON?


FAA INFORMATION EFFECTIVE 26 MARCH 2020

Location

FAA Identifier: Y47
Lat/Long: 42-30-11.2460N 083-37-25.3250W
42-30.187433N 083-37.422083W
42.5031239,-83.6237014
(estimated)
Elevation: 926.1 ft. / 282 m (estimated)
Variation: 07W (2020)
From city: 1 mile SW of NEW HUDSON, MI
Time zone: UTC -4 (UTC -5 during Standard Time)
Zip code: 48165

Airport Operations

Airport use: Open to the public
Activation date: 10/1946
Control tower: no
ARTCC: CLEVELAND CENTER
FSS: LANSING FLIGHT SERVICE STATION
NOTAMs facility: LAN (NOTAM-D service available)
Attendance: MON-FRI 0830-1700, ALL SAT-SUN ON CALL
Wind indicator: lighted
Segmented circle: yes
Lights: ACTVT LIRL RY 08/26 - 3 TIMES ON CTAF.
Beacon: white-green (lighted land airport)
Operates sunset to sunrise.

Airport Communications

CTAF/UNICOM: 122.7
DETROIT APPROACH: 132.35
DETROIT DEPARTURE: 132.35
WX ASOS at PTK (13 nm NE): 125.025 (248-886-8551)
WX ASOS at YIP (16 nm S): 132.35 (734-961-6843)
WX AWOS-3 at OZW (18 nm NW): 118.875 (517-546-4450)
WX ASOS at ARB (18 nm S): 134.55 (734-668-7173)
WX AWOS-3 at VLL (20 nm E): 119.475 (248-288-4649)

Nearby radio navigation aids

VOR radial/distance  VOR name  Freq  Var
SVMr350/5.8SALEM VORTAC114.3003W
DXOr333/20.8DETROIT VOR/DME113.4006W
CRLr348/28.3CARLETON VOR/DME115.7003W
FNTr175/28.3FLINT VORTAC116.9006W
YQGr299/38.4WINDSOR VOR/DME113.8006W

 
NDB name  Hdg/Dist  Freq  Var  ID
TECUMSEH028/30.523906WTCU - -.-. ..-
GROSSE ILE326/31.941907WRYS .-. -.-- ...

Airport Services

Fuel available: 100LL
Parking: hangars and tiedowns
Bottled oxygen: NONE
Bulk oxygen: NONE

Runway Information

Runway 8/26

Dimensions: 3128 x 40 ft. / 953 x 12 m
Surface: asphalt, in fair condition
Runway edge lights: low intensity
RUNWAY 8  RUNWAY 26
Latitude: 42-30.104963N42-30.269903N
Longitude: 083-37.751758W083-37.092397W
Elevation: 920.9 ft.926.1 ft.
Traffic pattern: leftleft
Runway heading: 078 magnetic, 071 true258 magnetic, 251 true
Displaced threshold: 867 ft.864 ft.
Markings: basic, in fair conditionbasic, in fair condition
Visual slope indicator: 2-box VASI on right (4.00 degrees glide path)
RY 08 VASI OTS INDEF.
2-box VASI on left (4.00 degrees glide path)
RY 26 VASI OTS INDEF.
Runway end identifier lights: nono
Touchdown point: yes, no lightsyes, no lights
Obstructions: 20 ft. brush, 15 ft. from runway
-4 FT DITCH 40 FT FM THR & SCTD +5-15 FT BRUSH.
66 ft. trees, 201 ft. from runway, 145 ft. right of centerline
20' BRUSH 84' FM THR 110' L.

Airport Ownership and Management from official FAA records

Ownership: Publicly-owned
Owner: OAKLAND COUNTY
BOX 329
NEW HUDSON, MI 48165
Phone (248) 437-2333
Manager: CHERYL BUSH
57751 PONTIAC TRAIL
NEW HUDSON, MI 48165
Phone 248-437-2333

Airport Operational Statistics

Aircraft based on the field: 38
Single engine airplanes: 36
Multi engine airplanes: 1
Gliders airplanes: 1
    
Aircraft operations: avg 36/day *
50% transient general aviation
50% local general aviation
* for 12-month period ending 31 December 2017

Additional Remarks

TREES & BRUSH IN PRIMARY SFC 70-120 FT L & R.
FOR CD CTC DETROIT APCH AT 800-499-8181.
CRANE 2874 FT E APCH END RWY 26 (120FT AGL) FLAGGED NOT LGTD.
CRANE 2874 FT E APCH END RWY 26 (120FT AGL) FLAGGED NOT LGTD.
DEER AND LARGE BIRDS ON AND INVOF RWY.

Instrument Procedures

NOTE: All procedures below are presented as PDF files. If you need a reader for these files, you should download the free Adobe Reader.

NOT FOR NAVIGATION. Please procure official charts for flight.
FAA instrument procedures published for use from 26 March 2020 at 0901Z to 23 April 2020 at 0900Z.

 
IAPs - Instrument Approach Procedures
VOR OR GPS-A **CHANGED**   download (129KB)
NOTE: Special Take-Off Minimums/Departure Procedures apply   download (255KB)

Other nearby airports with instrument procedures:

1D2 - Canton-Plymouth-Mettetal Airport (12 nm SE)
KPTK - Oakland County International Airport (13 nm NE)
KYIP - Willow Run Airport (16 nm S)
KOZW - Livingston County Spencer J Hardy Airport (18 nm NW)
KARB - Ann Arbor Municipal Airport (18 nm S)
9G2 - Price's Airport (19 nm N)
KVLL - Oakland/Troy Airport (20 nm E)
 
Loc | Ops | Rwys | IFR | FBO | Links
Com | Nav | Svcs | Stats | Notes
Area around Y47 (Oakland Southwest Airport)
 
Road maps at: MapQuest Bing Google
 
Aerial photo
WARNING: Photo may not be current or correct
Aerial photo of Y47 (Oakland Southwest Airport)
Photo by Jeff Franks
Photo taken 13-Jun-2013
looking south.

Do you have a better or more recent aerial photo of Oakland Southwest Airport that you would like to share? If so, please send us your photo.

 
Sectional chart

 
Airport distance calculator
Flying to Oakland Southwest Airport? Find the distance to fly.

From to Y47

Sunrise and sunset
Times for 31-Mar-2020
 Local
(UTC-4)
 Zulu
(UTC)
Morning civil twilight06:4910:49
Sunrise07:1811:18
Sunset19:5923:59
Evening civil twilight20:2700:27

Current date and time
Zulu (UTC)  01-Apr-2020 03:00:31
Local (UTC-4)  31-Mar-2020 23:00:31
 
METAR
KPTK 
13nm NE 
010253Z 36008KT 5SM -RA BR BKN008 OVC013 05/03 A2995 RMK AO2 CIG 006V011 SLP148 P0001 60001 T00500033 51004
KOZW 
17nm NW 
010235Z AUTO 01006KT 10SM OVC007 04/04 A2997 RMK AO2 T00410037
KYIP 
17nm S 
010253Z 01007KT 10SM OVC013 08/04 A2995 RMK AO2 SLP143 60000 T00780044 51002
KARB 
18nm S 
734-668-7173
010253Z AUTO 36010KT 7SM OVC010 05/03 A2995 RMK AO2 RAB07E18B38E52 CIG 007V013 SLP147 P0001 60001 T00500033 51004
KVLL 
20nm E 
010235Z AUTO 36006KT 5SM -RA SCT010 BKN019 OVC030 06/05 A2998 RMK AO2 T00550048
KDTW 
21nm SE 
010253Z 04006KT 10SM BKN015 OVC030 06/03 A2995 RMK AO2 SLP147 60000 T00610033 53003
TAF
KPTK 
13nm NE 
010108Z 0101/0124 36005KT P6SM OVC008 FM011200 35006KT P6SM OVC010 FM011700 34006KT P6SM BKN030
KYIP 
17nm S 
010043Z 0101/0124 02005KT P6SM -DZ OVC018 FM010500 36005KT P6SM OVC008 FM011000 35006KT P6SM OVC010 FM011900 34006KT P6SM SCT030 FM012300 04006KT P6SM SKC
NOTAMs
Click for the latest NOTAMs
NOTAMs are issued by the DoD/FAA and will open in a separate window not controlled by AirNav.

 

 
 

Would you like to see your business listed on this page?

 If your business provides an interesting product or service to pilots, flight crews, aircraft, or users of the Oakland Southwest Airport, you should consider listing it here.  To start the listing process, click on the button below
 
Add a business
 

Other Pages about Oakland Southwest Airport

www.oakgov.com/...
Page from the Michigan Airport Directory (PDF)
 
Update a link
 
Copyright © AirNav, LLC. All rights reserved. Privacy Policy  Contact